Regional Weather Roundup
Issued by NWS San Angelo, TX

Home | Current Version | Previous Version | Text Only | Print | Product List | Glossary On
Versions: 1 2 3 4 5 6 7 8 9 10 11 12 13 14 15 16 17 18 19 20 21 22 23 24 25 26 27 28 29 30 31 32 33 34 35 36 37 38 39 40 41 42 43 44 45 46 47 48 49 50
000
ASUS44 KSJT 271110
RWRSJT
WEST CENTRAL TEXAS REGIONAL WEATHER ROUNDUP
NATIONAL WEATHER SERVICE SAN ANGELO TX
500 AM CST FRI FEB 27 2015

NOTE: "FAIR" INDICATES FEW OR NO CLOUDS BELOW 12,000 FEET WITH NO
SIGNIFICANT WEATHER AND/OR OBSTRUCTIONS TO VISIBILITY.

TXZ049-054-064>066-071>073-076>078-098-099-113-114-127-128-139-140-
154-155-168>170-271200
...LOCATIONS ACROSS WEST CENTRAL TEXAS...

CITY           SKY/WX    TMP DP  RH WIND       PRES   REMARKS
SAN ANGELO     CLOUDY    25  22  88 NE13      30.29R WCI  14
ABILENE        LGT SNOW  24  14  65 NE8       30.34R WCI  15
DYESS AFB      LGT SNOW  23  16  73 NE9       30.33R WCI  13
JUNCTION       CLOUDY    31  18  58 E9        30.27S WCI  23
SWEETWATER     CLOUDY    21  18  88 NE13      30.32F WCI   8
BROWNWOOD      MIX PCPN  28  16  59 E12       30.33R WCI  18
COLEMAN        LGT SNOW  27  21  79 NE14      30.31S WCI  15
SONORA         CLOUDY    28  19  69 E7        30.28R WCI  21
OZONA          CLOUDY    27  27 100 E7        30.25S FOG     WCI  19
BRADY          CLOUDY    28  18  64 NE8       30.28R WCI  20
$$

TEXAS PANHANDLE/OKLAHOMA PANHANDLE

CITY           SKY/WX    TMP DP  RH WIND       PRES   REMARKS
AMARILLO       LGT SNOW  14  11  87 E13       30.26R VSB 1   WCI   0
BORGER         CLOUDY    18   6  59 E10       30.30F WCI   6
CANADIAN       CLOUDY    20   0  41 E10       30.38F WCI   9
DALHART        SNOW      15  10  80 E12       30.24R VSB 1/2 WCI   2
DUMAS          LGT SNOW  14   9  81 E9        30.27R WCI   1
GUYMON         NOT AVBL
HEREFORD       LGT SNOW  17  14  90 SE10      30.24R WCI   4
PAMPA          FLURRIES  15   4  61 E13       30.30F WCI   2
PERRYTON       CLOUDY    16   3  58 E12       30.35S WCI   2
$$

SOUTHERN PANHANDLE/SOUTH PLAINS/ROLLING PLAINS

CITY           SKY/WX    TMP DP  RH WIND       PRES   REMARKS
LUBBOCK        SNOW      15  12  88 E12       30.26R VSB 1/4 WCI   2
SNYDER         LGT SNOW  18  15  87 NE15      30.31R VSB 1   WCI   4
CHILDRESS      CLOUDY    22  -1  36 E9        30.38F WCI  12
SEMINOLE       LGT SNOW  19  16  88 E14       30.23F WCI   5
$$

PERMIAN BASIN

CITY           SKY/WX    TMP DP  RH WIND       PRES   REMARKS
MIDLAND        CLOUDY    21  18  88 NE16      30.22F FOG     WCI   7
ODESSA         CLOUDY    20  17  88 E15       30.22F FOG     WCI   6
WINK           CLOUDY    24  17  74 E16       30.20F WCI  11
$$

FAR WEST/SOUTHWEST MOUNTAINS/TRANS PECOS

CITY           SKY/WX    TMP DP  RH WIND       PRES   REMARKS
ALPINE         CLOUDY    24  22  95 NE9       30.13F VSB 1/2 WCI  14
DRYDEN           N/A     30  25  81 E12       30.18S WCI  20
EL PASO        CLOUDY    31  22  69 E10       30.00S WCI  22
FORT STOCKTON  CLOUDY    25  22  88 E8        30.18S WCI  16
GUADALUPE PASS FOG       19  18  95 NE24      30.00S VSB 3/4 WCI   2
MARFA          CLOUDY    25  23  93 NE13      30.04F WCI  13
PECOS          CLOUDY    28  19  69 NE13      30.20S WCI  17
$$

DALLAS/FORT WORTH METROPLEX

CITY           SKY/WX    TMP DP  RH WIND       PRES   REMARKS
DFW AIRPORT    MOCLDY    26  11  52 NE10      30.42R WCI  16
FTW MEACHAM    MOCLDY    28  11  48 NE9       30.41R WCI  19
DAL-EXECUTIVE  MOCLDY    27  11  51 NE13      30.40R WCI  16
GRAND PRAIRIE  CLEAR     28  15  58 N8        30.43R WCI  19
ADDISON        NOT AVBL
MESQUITE       NOT AVBL
LANCASTER      CLOUDY    28  13  52 NE8       30.43R WCI  20
$$

NORTH CENTRAL TEXAS

CITY           SKY/WX    TMP DP  RH WIND       PRES   REMARKS
SHRMAN/DENISON FAIR      25  14  63 NE13      30.44S WCI  13
GAINESVILLE    CLOUDY    25   9  51 NE10      30.46R WCI  14
BRIDGEPORT     CLOUDY    26  13  56 NE10      30.45R WCI  16
DENTON         CLOUDY    25  10  53 NE14      30.43R WCI  13
WAXAHACHIE     CLOUDY    28  16  61 N9G16     30.40F WCI  19
GRANBURY       CLOUDY    30  15  53 NE5       30.41S WCI  25
$$

WESTERN NORTH TEXAS

CITY           SKY/WX    TMP DP  RH WIND       PRES   REMARKS
WICHITA FALLS  CLOUDY    24   5  44 NE16      30.44R WCI  11
VERNON         CLOUDY    25  -4  27 NE15      30.44F WCI  13
BRECKENRIDGE   CLOUDY    28  13  52 NE9       30.37S WCI  20
COMANCHE       CLOUDY    28  17  63 NE8       30.33S WCI  20
$$

CENTRAL AND SOUTH CENTRAL TEXAS

CITY           SKY/WX    TMP DP  RH WIND       PRES   REMARKS
AUSTIN/BERGSTM CLOUDY    35  22  58 NE17      30.31F WCI  25
WACO           CLOUDY    29  17  61 NE15      30.38S WCI  18
HILLSBORO      CLOUDY    29  17  60 N9        30.38S WCI  20
TEMPLE         CLOUDY    30  16  55 NE13      30.33F WCI  20
KILLEEN-GRAY   CLOUDY    30  19  63 NE14      30.32R WCI  19
FORT HOOD      CLOUDY    30  18  61 NE13      30.32F WCI  20
GEORGETOWN     CLOUDY    34  19  55 NE13      30.32S WCI  25
LAGO VISTA     CLOUDY    33  22  63 NE8       30.28F WCI  26
SAN MARCOS     CLOUDY    36  19  51 NE10      30.33R WCI  28
NEW BRAUNFELS  CLOUDY    36  22  56 NE13      30.31R WCI  27
RANDOLPH AFB   CLOUDY    35  21  55 NE13      30.31R WCI  27
SAN ANTONIO    CLOUDY    36  21  54 NE9       30.31S WCI  29
STINSON        CLOUDY    37  22  54 NE10      30.30S WCI  30
PLEASANTON     NOT AVBL
LA GRANGE      PTCLDY    38  28  69 N3        30.32R
GIDDINGS       CLOUDY    35  24  63 NE7       30.36R WCI  29
$$

EAST TEXAS

CITY           SKY/WX    TMP DP  RH WIND       PRES   REMARKS
PARIS          CLEAR     23  10  58 N8        30.44R WCI  14
CLARKSVILLE    NOT AVBL
TYLER          CLOUDY    31  18  58 NE14      30.37F WCI  21
LONGVIEW       MOCLDY    31  20  63 NE10G18   30.41R WCI  22
PALESTINE      CLOUDY    33  23  67 N7        30.39S WCI  27
NACOGDOCHES    CLOUDY    34  25  69 E7        30.38R WCI  28
$$

TEXAS HILL COUNTRY AND EDWARDS PLATEAU

CITY           SKY/WX    TMP DP  RH WIND       PRES   REMARKS
LLANO          PTSUNNY   34  19  55 E7        30.36R WCI  28
HORSESHOE BAY  CLOUDY    33  20  60 NE5       30.31S WCI  28
KERRVILLE      CLOUDY    31  20  62 NE7       30.27S WCI  24
FREDERICKSBRG  CLOUDY    31  19  62 E6        30.27R WCI  25
ROCKSPRINGS    CLOUDY    30  19  64 E7        30.23S WCI  23
HONDO          CLOUDY    36  21  54 NE12      30.32R WCI  28
UVALDE         CLOUDY    36  23  58 E10       30.30S WCI  28
DEL RIO        CLOUDY    36  29  75 E5        30.27S WCI  32
$$

SOUTHEAST TEXAS

CITY           SKY/WX    TMP DP  RH WIND       PRES   REMARKS
COLLEGE STN    CLOUDY    35  24  64 NE15      30.32F WCI  25
CALDWELL       CLOUDY    34  23  64 N8        30.35R WCI  27
CROCKETT       CLOUDY    36  30  80 NE6       30.39R WCI  31
BRENHAM        CLEAR     36  28  73 NE6       30.33S WCI  31
HUNTSVILLE     CLOUDY    33  28  81 VRB6      30.34F WCI  28
CONROE         CLOUDY    35  30  82 N8        30.33S WCI  29
HOUSTON BUSH   CLOUDY    37  32  82 NE12      30.33S WCI  29
HOUSTON HOBBY  CLOUDY    40  34  79 NE12      30.30F WCI  33
PERLAND        CLOUDY    41  34  76 NE13G22   30.32F WCI  34
WHARTON        CLOUDY    37  32  83 NE9       30.32R WCI  30
$$

THE UPPER TEXAS COAST

CITY           SKY/WX    TMP DP  RH WIND       PRES   REMARKS
ORANGE         CLOUDY    38  32  79 N12       30.36R WCI  31
PORT ARTHUR    CLOUDY    39  31  72 NE16      30.32S WCI  30
GALVESTON      CLOUDY    40  34  79 NE18      30.32S WCI  31
ANGLETON       CLOUDY    39  35  86 NE8       30.30S WCI  33
BAY CITY       CLOUDY    41  37  86 NE7       30.30F WCI  36
$$

TEXAS COASTAL BEND, RIO GRANDE PLAINS DEEP SOUTH TEXAS

CITY           SKY/WX    TMP DP  RH WIND       PRES   REMARKS
VICTORIA       CLOUDY    36  31  82 NE8       30.33R WCI  30
BEEVILLE       PTSUNNY   36  29  75 NE12      30.30S WCI  28
ROCKPORT       CLOUDY    41  33  73 N15       30.28F WCI  33
PORT ARANSAS   CLOUDY    43  39  86 N20       30.26S WCI  35
PORT LAVACA    CLOUDY    37  34  87 NE14      30.31R WCI  29
CORPUS CHRISTI CLOUDY    40  33  76 N16       30.27F WCI  31
KINGSVILLE NAS CLOUDY    42  34  73 N16G23    30.27F WCI  34
COTULLA        CLOUDY    40  24  53 E9        30.31S WCI  34
LAREDO         CLOUDY    39  27  62 NE21      30.28F WCI  29
BROWNSVILLE    CLOUDY    56  50  80 NE5       30.18F
PORT ISABEL    CLOUDY    58  51  78 NE6       30.18F
HEBBRONVILLE   CLOUDY   N/A N/A N/A N14       30.26S
MCALLEN        MOCLDY    48  41  76 NE14      30.21S
WESLACO        MOCLDY    47  42  81 N9        30.21S
FALFURRIAS     CLOUDY    42  33  71 N12G18    30.27S WCI  35
EDINBURG       CLOUDY    48  40  75 N9        30.23S
$$



USA.gov is the U.S. government's official web portal to all federal, state and local government web resources and services.